This demonstration page uses our WeatherBlox Daily Observations layout. Learn more.

Left ArrowRight Arrow

Hourly Observations for December 1, 2019

Temp ( °F °C ) Dew Point ( °F °C ) Humidity (%) Winds ( mph kmh ) Pressure ( in mb ) Visibility ( mi km ) Precip ( " mm )
12:06 am 00:06 Cloudy with Light Rain 39 3.9 36 2.2 89 89 NE 6 9 29.97 1015 5 8 0.01 0.25
12:53 am 00:53 Cloudy with Light Rain 39 3.9 36 2.2 89 89 NNE 8 13 29.94 1014 5 8 0.04 1.02
1:03 am 01:03 Cloudy with Rain 38 3.3 36 2.2 93 93 N 8 13 29.94 1014 5 8 0.02 0.51
1:11 am 01:11 Cloudy with Rain 38 3.3 36 2.2 93 93 N 9 15 29.94 1014 5 8 0.03 0.76
1:21 am 01:21 Cloudy with Light Rain 38 3.3 35 1.7 89 89 N 8 13 29.94 1014 5 8 0.05 1.27
1:53 am 01:53 Cloudy with Rain 38 3.3 36 2.2 93 93 NNW 5 7 29.93 1014 5 8 0.11 2.79
2:20 am 02:20 Cloudy with Rain 37 2.8 35 1.7 93 93 NW 5 7 29.94 1014 5 8 0.05 1.27
2:53 am 02:53 Cloudy with Rain 37 2.8 35 1.7 93 93 NNW 3 6 29.95 1014 4 6 0.10 2.54
3:36 am 03:36 Cloudy with Light Rain 37 2.8 35 1.7 93 93 NNW 3 6 29.94 1014 6 10 0.11 2.79
3:53 am 03:53 Cloudy with Light Rain 37 2.8 35 1.7 93 93 N 3 6 29.95 1014 9 14 0.12 3.05
4:53 am 04:53 Cloudy with Light Rain 38 3.3 36 2.2 93 93 VRB 3 6 29.94 1014 8 13 0.05 1.27
5:19 am 05:19 Cloudy with Light Rain 38 3.3 36 2.2 93 93 NW 3 6 29.94 1014 5 8 0.01 0.25
5:53 am 05:53 Cloudy with Light Rain 38 3.3 36 2.2 93 93 NW 3 6 29.94 1014 6 10 0.03 0.76
6:21 am 06:21 Cloudy with Light Rain 38 3.3 36 2.2 93 93 VRB 6 9 29.94 1014 5 8 0.03 0.76
6:29 am 06:29 Cloudy with Light Rain 38 3.3 36 2.2 93 93 N 12 19 29.94 1014 7 11 0.04 1.02
6:53 am 06:53 Cloudy with Light Rain 38 3.3 36 2.2 93 93 WNW 3 6 29.95 1014 10 16 0.04 1.02
7:29 am 07:29 Cloudy 39 3.9 36 2.2 89 89 NW 3 6 29.97 1015 10 16 0.01 0.25
7:39 am 07:39 Cloudy 39 3.9 36 2.2 89 89 NNW 5 7 29.97 1015 7 11 0.01 0.25
7:53 am 07:53 Cloudy with Mist and Fog 39 3.9 36 2.2 89 89 WNW 3 6 29.97 1015 4 6 0.01 0.25
8:02 am 08:02 Cloudy with Mist and Fog 39 3.9 37 2.8 93 93 NW 5 7 29.97 1015 3 5 0.00 0.00
8:53 am 08:53 Cloudy with Mist and Fog 40 4.4 38 3.3 93 93 N 3 6 29.97 1015 3 5 0.01 0.25
9:04 am 09:04 Cloudy with Mist and Fog 40 4.4 38 3.3 93 93 VRB 5 7 29.97 1015 3 4 0.00 0.00
9:14 am 09:14 Cloudy with Mist and Fog 41 5 39 3.9 93 93 NNW 5 7 29.97 1015 3 5 0.01 0.25
9:35 am 09:35 Cloudy with Mist and Fog 41 5 39 3.9 93 93 NNW 6 9 29.97 1015 3 4 0.01 0.25
9:46 am 09:46 Mostly Cloudy with Mist and Fog 41 5 39 3.9 93 93 NNW 6 9 29.97 1015 3 4 0.01 0.25
9:53 am 09:53 Cloudy with Mist and Fog 41 5 39 3.9 93 93 NNW 6 9 29.98 1015 3 4 0.01 0.25
10:24 am 10:24 Cloudy with Mist and Fog 42 5.6 40 4.4 92 92 N 6 9 29.97 1015 3 4 0.00 0.00
10:53 am 10:53 Cloudy with Light Rain 42 5.6 40 4.4 92 92 N 6 9 29.98 1015 3 4 0.02 0.51
11:02 am 11:02 Cloudy with Mist and Fog 42 5.6 40 4.4 92 92 N 5 7 29.97 1015 6 10 0.00 0.00
11:12 am 11:12 Cloudy with Mist and Fog 42 5.6 40 4.4 92 92 N 5 7 29.97 1015 5 8 0.00 0.00
11:53 am 11:53 Cloudy with Light Rain 43 6.1 41 5 93 93 N 5 7 29.97 1015 2 3 0.02 0.51
12:17 pm 12:17 Cloudy with Light Rain 43 6.1 41 5 93 93 N 5 7 29.97 1015 3 5 0.02 0.51
12:30 pm 12:30 Cloudy with Light Rain 43 6.1 41 5 93 93 Calm 29.97 1015 3 4 0.03 0.76
12:53 pm 12:53 Cloudy with Light Rain 44 6.7 42 5.6 93 93 Calm 29.96 1015 3 4 0.04 1.02
1:24 pm 13:24 Cloudy with Light Rain 44 6.7 42 5.6 93 93 N 3 6 29.94 1014 3 4 0.02 0.51
1:33 pm 13:33 Cloudy with Mist and Fog 44 6.7 42 5.6 93 93 N 5 7 29.94 1014 3 5 0.02 0.51
1:39 pm 13:39 Cloudy with Mist and Fog 44 6.7 42 5.6 93 93 N 7 11 29.94 1014 3 4 0.02 0.51
1:53 pm 13:53 Cloudy with Mist and Fog 45 7.2 42 5.6 90 90 N 9 15 29.95 1014 3 4 0.02 0.51
2:07 pm 14:07 Cloudy with Mist and Fog 45 7.2 43 6.1 93 93 NNW 3 6 29.94 1014 3 5 0.01 0.25
2:32 pm 14:32 Cloudy with Light Rain 45 7.2 42 5.6 90 90 N 9 15 29.94 1014 2 3 0.01 0.25
2:45 pm 14:45 Cloudy with Light Rain 45 7.2 43 6.1 93 93 N 8 13 29.94 1014 3 5 0.02 0.51
2:53 pm 14:53 Cloudy with Light Rain 45 7.2 43 6.1 93 93 N 6 9 29.95 1014 3 5 0.02 0.51
2:56 pm 14:56 Cloudy with Light Rain 45 7.2 43 6.1 93 93 N 7 11 29.94 1014 3 4 0.00 0.00
3:53 pm 15:53 Cloudy with Light Rain 45 7.2 43 6.1 93 93 N 7 11 29.96 1014 3 4 0.04 1.02
4:53 pm 16:53 Cloudy with Light Rain 44 6.7 42 5.6 93 93 N 6 9 29.96 1015 3 4 0.07 1.78
4:57 pm 16:57 Cloudy with Light Rain 44 6.7 42 5.6 93 93 N 6 9 29.97 1015 3 5 0.00 0.00
5:18 pm 17:18 Cloudy with Light Rain 44 6.7 42 5.6 93 93 NW 3 6 29.97 1015 5 8 0.03 0.76
5:53 pm 17:53 Cloudy with Light Rain 44 6.7 42 5.6 93 93 NNW 3 6 29.97 1015 4 6 0.04 1.02
6:15 pm 18:15 Cloudy with Light Rain 44 6.7 42 5.6 93 93 NNW 3 6 29.97 1015 3 5 0.01 0.25
6:53 pm 18:53 Cloudy with Light Rain 44 6.7 42 5.6 93 93 N 7 11 29.98 1015 4 6 0.05 1.27
7:11 pm 19:11 Cloudy with Light Rain 44 6.7 43 6.1 96 96 NW 5 7 29.97 1015 3 4 0.01 0.25
7:23 pm 19:23 Cloudy with Light Rain 45 7.2 43 6.1 93 93 NNW 6 9 30.00 1016 4 6 0.02 0.51
7:30 pm 19:30 Cloudy with Light Rain 45 7.2 43 6.1 93 93 VRB 3 6 30.00 1016 4 6 0.02 0.51
7:46 pm 19:46 Cloudy with Light Rain 45 7.2 43 6.1 93 93 N 6 9 30.00 1016 3 5 0.03 0.76
7:53 pm 19:53 Cloudy 45 7 43 6 93 93 NNW 7 11 30.00 1016 3 5 0.00 0.00
8:11 pm 20:11 Cloudy with Light Rain 44 6.7 43 6.1 96 96 NNW 3 6 30.00 1016 3 5 0.01 0.25
8:20 pm 20:20 Cloudy with Mist and Fog 45 7.2 43 6.1 93 93 Calm 30.00 1016 5 8 0.01 0.25
8:32 pm 20:32 Cloudy with Mist and Fog 45 7.2 43 6.1 93 93 NNW 5 7 30.00 1016 5 8 0.01 0.25
8:53 pm 20:53 Cloudy with Light Rain 45 7.2 43 6.1 93 93 N 3 6 30.00 1016 4 6 0.02 0.51
9:06 pm 21:06 Cloudy with Light Rain 45 7.2 43 6.1 93 93 N 5 7 30.00 1016 4 6 0.00 0.00
9:15 pm 21:15 Cloudy with Light Rain 45 7.2 43 6.1 93 93 NNW 5 7 30.00 1016 6 10 0.01 0.25
9:41 pm 21:41 Cloudy with Light Rain 45 7.2 43 6.1 93 93 N 6 9 30.00 1016 4 6 0.01 0.25
9:53 pm 21:53 Cloudy with Light Rain 45 7.2 43 6.1 93 93 N 5 7 30.01 1016 4 6 0.02 0.51
10:23 pm 22:23 Cloudy with Light Rain 45 7.2 43 6.1 93 93 N 5 7 30.00 1016 5 8 0.01 0.25
10:53 pm 22:53 Cloudy with Light Rain 45 7.2 43 6.1 93 93 NNW 6 9 30.01 1016 4 6 0.03 0.76
11:53 pm 23:53 Cloudy with Light Rain 45 7.2 44 6.7 97 97 Calm 30.01 1016 6 10 0.04 1.02

Powered by AerisWeather